Location: Laterina
(43.5167°N, 11.7167°E)
Time: 16:45:08
(UTC+00:00)

Abrixas rocket - Pass Details

Date: 24 September 2020
Orbit: 328 x 335 km, 48.4° (Epoch: 26 October)

Event Time Altitude Azimuth Distance (km) Brightness Sun altitude
Rises 18:30:23 0° 295° (WNW) 2,098 7.5 -15.9°
Reaches altitude 10° 18:32:24 10° 299° (WNW) 1,258 5.9 -16.3°
Maximum altitude 18:35:11 60° 21° (NNE) 380 1.9 -16.8°
Enters shadow 18:35:24 57° 48° (NE) 392 1.8 -16.8°
